Location: Beaurevoir
(49.9971°N, 3.3085°E)
Time: 03:36:50
(UTC+00:00)

Cosmos 1408 - Pass Details

Date: 23 May 2024
Orbit: 363 x 377 km, 82.6° (Epoch: 17 June)

Event Time Altitude Azimuth Distance (km) Brightness Sun altitude
Exits shadow 02:50:57 11° 233° (SW) 1,279 4.0 -8.1°
Maximum altitude 02:53:10 24° 288° (WNW) 820 3.5 -7.9°
Drops below altitude 10° 02:55:38 10° 344° (NNW) 1,365 5.3 -7.6°
Sets 02:57:52 0° 360° (N) 2,220 6.7 -7.3°
